Location: Angwan Shehu
(11.2514°N, 7.4613°E)
Time: 00:36:34
(UTC+00:00)

Tiros 1 - Pass Details

Date: 23 April 2021
Orbit: 630 x 664 km, 48.4° (Epoch: 06 May)

Event Time Altitude Azimuth Distance (km) Brightness Sun altitude
Rises 04:08:54 0° 194° (SSW) 2,972 - -16.5°
Exits shadow 04:09:52 - 190° (S) 2,636 10.0 -16.2°
Reaches altitude 10° 04:11:40 10° 179° (S) 2,056 9.6 -15.8°
Maximum altitude 04:15:23 23° 128° (SE) 1,388 9.3 -14.9°
Drops below altitude 10° 04:19:04 10° 76° (ENE) 2,040 11.2 -14.1°
Sets 04:21:47 0° 62° (ENE) 2,943 12.3 -13.4°
